Weather History for KFSO - November, 2012

Change the Weather History Date:

Friday, November 2, 2012

  Actual Average (KPBG) Record (KPBG)
Temperature  
Mean Temperature 39 °F 42 °F  
Max Temperature 41 °F 51 °F 75 °F (1950)
Min Temperature 37 °F 32 °F 18 °F (1951)
Degree Days  
Heating Degree Days 26 23  
Month to date heating degree days 46  
Since 1 July heating degree days 829  
Cooling Degree Days 0 0  
Month to date cooling degree days 0  
Year to date cooling degree days 346  
Moisture  
Dew Point 35 °F    
Average Humidity 85    
Maximum Humidity 92    
Minimum Humidity 71    
Precipitation  
Precipitation 0.00 in - 1.05 in (1988)
Month to date precipitation  
Year to date precipitation  
Sea Level Pressure  
Sea Level Pressure 29.56 in    
Wind  
Wind Speed 2 mph (WSW)    
Max Wind Speed 8 mph    
Max Gust Speed -    
Visibility 9 miles    
Events Rain    
T = Trace of Precipitation, MM = Missing Value Source: NWS Daily Summary

Daily Weather History Graph

Daily Weather History Graph

Search for Another Location

Airport or City:

Trip Planner

Search our weather history database for the weather conditions in past years. The results will help you decide how hot, cold, wet, or windy it might be!

Date:

Astronomy

Nov. 02, 2012 Rise Set
Actual Time 7:32 AM EDT 5:38 PM EDT
Civil Twilight 7:02 AM EDT 6:09 PM EDT
Nautical Twilight 6:27 AM EDT 6:43 PM EDT
Astronomical Twilight 5:53 AM EDT 7:18 PM EDT
Moon 8:18 PM EDT (11/2) 10:56 AM EDT (11/2)
Length of Visible Light 11h 07m
Length of Day
10h 05m
Waning Gibbous, 87% of the Moon is Illuminated
Nov 2
Waning Gibbous
Nov 6
Last Quarter
Nov 13
New
Nov 20
First Quarter
Nov 28
Full

Hourly Weather History & Observations

Time (EDT) Temp. Windchill Dew Point Humidity Pressure Visibility Wind Dir Wind Speed Gust Speed Precip Events Conditions
12:15 AM 40.6 °F - 37.9 °F 90% 29.49 in 10.0 mi Calm Calm - N/A   Light Drizzle
12:35 AM 40.5 °F - 38.3 °F 92% 29.49 in 10.0 mi Calm Calm - N/A   Light Drizzle
1:15 AM 40.6 °F - 37.6 °F 89% 29.49 in 10.0 mi Calm Calm - N/A Rain Light Rain
1:35 AM 40.6 °F - 37.4 °F 88% 29.49 in 10.0 mi Calm Calm - N/A   Light Drizzle
1:55 AM 40.6 °F - 36.7 °F 86% 29.49 in 10.0 mi Calm Calm - N/A   Overcast
2:15 AM 40.6 °F 38.6 °F 36.1 °F 84% 29.50 in 10.0 mi WSW 3.5 mph - N/A   Overcast
2:35 AM 41.2 °F 39.2 °F 36.0 °F 82% 29.50 in 10.0 mi WSW 3.5 mph - N/A   Light Drizzle
2:55 AM 41.7 °F 38.8 °F 35.6 °F 79% 29.50 in 10.0 mi SW 4.6 mph - N/A   Light Drizzle
3:15 AM 41.7 °F 39.8 °F 35.6 °F 79% 29.50 in 10.0 mi WSW 3.5 mph - N/A   Light Drizzle
3:35 AM 41.9 °F 40.0 °F 35.8 °F 79% 29.50 in 10.0 mi WSW 3.5 mph - N/A   Light Drizzle
3:55 AM 41.0 °F - 35.6 °F 81% 29.50 in 10.0 mi Calm Calm - N/A Rain Light Rain
4:15 AM 40.6 °F 38.6 °F 35.2 °F 81% 29.50 in 10.0 mi West 3.5 mph - N/A   Overcast
4:35 AM 40.6 °F - 35.6 °F 82% 29.50 in 10.0 mi Calm Calm - N/A   Overcast
4:55 AM 39.6 °F - 35.8 °F 86% 29.51 in 10.0 mi Calm Calm - N/A   Overcast
5:15 AM 39.4 °F - 36.0 °F 88% 29.51 in 10.0 mi Calm Calm - N/A   Light Drizzle
5:35 AM 39.4 °F - 36.5 °F 89% 29.51 in 10.0 mi Calm Calm - N/A   Drizzle
5:55 AM 39.4 °F - 36.9 °F 91% 29.51 in 7.0 mi Calm Calm - N/A Rain Light Rain
6:15 AM 39.4 °F - 37.0 °F 91% 29.51 in 10.0 mi Calm Calm - N/A   Drizzle
6:35 AM 38.7 °F - 36.3 °F 91% 29.51 in 7.0 mi Calm Calm - N/A   Drizzle
6:55 AM 38.3 °F - 36.0 °F 91% 29.52 in 10.0 mi Calm Calm - N/A   Drizzle
7:15 AM 38.3 °F - 36.0 °F 91% 29.52 in 7.0 mi Calm Calm - N/A Rain Light Rain
7:35 AM 38.3 °F - 36.0 °F 91% 29.53 in 10.0 mi Calm Calm - N/A   Drizzle
7:55 AM 38.3 °F - 36.0 °F 91% 29.53 in 10.0 mi Calm Calm - N/A Rain Light Rain
8:15 AM 38.3 °F - 36.0 °F 91% 29.54 in 3.0 mi Calm Calm - N/A Rain Light Rain
8:35 AM 38.3 °F - 36.0 °F 91% 29.54 in 10.0 mi Calm Calm - N/A Rain Rain
8:55 AM 38.3 °F 35.9 °F 35.8 °F 91% 29.55 in 7.0 mi WSW 3.5 mph - N/A   Drizzle
9:15 AM 38.3 °F - 35.2 °F 89% 29.55 in 10.0 mi Calm Calm - N/A   Light Drizzle
9:35 AM 38.3 °F 35.9 °F 34.7 °F 87% 29.55 in 10.0 mi WSW 3.5 mph - N/A   Light Drizzle
9:55 AM 38.3 °F 35.9 °F 34.0 °F 84% 29.56 in 10.0 mi WSW 3.5 mph - N/A   Light Drizzle
10:15 AM 39.2 °F 37.0 °F 34.7 °F 84% 29.56 in 10.0 mi SW 3.5 mph - N/A   Drizzle
10:35 AM 38.8 °F 34.6 °F 34.0 °F 83% 29.56 in 10.0 mi SW 5.8 mph - N/A   Drizzle
10:55 AM 39.4 °F - 33.3 °F 79% 29.56 in 10.0 mi Calm Calm - N/A   Light Drizzle
11:15 AM 39.6 °F 34.7 °F 32.2 °F 75% 29.56 in 10.0 mi West 6.9 mph - N/A   Overcast
11:35 AM 40.1 °F 35.3 °F 32.5 °F 74% 29.56 in 10.0 mi WSW 6.9 mph - N/A   Overcast
11:55 AM 41.7 °F 39.8 °F 34.0 °F 74% 29.56 in 10.0 mi WSW 3.5 mph - N/A   Overcast
12:15 PM 40.6 °F 36.7 °F 32.2 °F 72% 29.56 in 10.0 mi WSW 5.8 mph - N/A   Overcast
12:35 PM 41.2 °F 37.3 °F 32.9 °F 72% 29.56 in 10.0 mi WSW 5.8 mph - N/A   Overcast
12:55 PM 40.6 °F - 32.4 °F 72% 29.56 in 10.0 mi Calm Calm - N/A   Overcast
1:15 PM 40.6 °F 38.6 °F 32.0 °F 71% 29.56 in 10.0 mi WSW 3.5 mph - N/A   Overcast
1:35 PM 40.6 °F 38.6 °F 32.5 °F 73% 29.57 in 10.0 mi WSW 3.5 mph - N/A   Light Drizzle
1:55 PM 40.5 °F - 32.7 °F 74% 29.57 in 7.0 mi Calm Calm - N/A Rain Light Rain
2:15 PM 40.6 °F 38.6 °F 32.5 °F 73% 29.57 in 10.0 mi WSW 3.5 mph - N/A   Overcast
2:35 PM 40.6 °F - 32.0 °F 71% 29.57 in 10.0 mi Calm Calm - N/A   Light Drizzle
3:15 PM 39.4 °F 37.2 °F 34.7 °F 83% 29.58 in 10.0 mi West 3.5 mph - N/A Rain Rain
3:35 PM 39.2 °F 34.2 °F 34.0 °F 82% 29.58 in 7.0 mi West 6.9 mph - N/A Rain Rain
3:55 PM 38.7 °F 32.9 °F 33.6 °F 82% 29.59 in 10.0 mi West 8.1 mph - N/A   Drizzle
4:15 PM 38.3 °F 33.2 °F 33.4 °F 83% 29.59 in 5.0 mi West 6.9 mph - N/A Rain Rain
4:35 PM 38.3 °F 33.9 °F 33.8 °F 84% 29.59 in 7.0 mi WSW 5.8 mph - N/A   Light Drizzle
4:55 PM 38.3 °F 35.9 °F 33.3 °F 82% 29.60 in 10.0 mi West 3.5 mph - N/A   Light Drizzle
5:15 PM 38.3 °F 35.9 °F 33.3 °F 82% 29.60 in 10.0 mi WSW 3.5 mph - N/A   Light Drizzle
5:35 PM 38.3 °F 33.9 °F 33.6 °F 83% 29.60 in 10.0 mi West 5.8 mph - N/A   Drizzle
5:55 PM 38.3 °F - 33.8 °F 84% 29.61 in 7.0 mi Calm Calm - N/A   Drizzle
6:15 PM 38.1 °F - 34.0 °F 85% 29.61 in 7.0 mi Calm Calm - N/A   Drizzle
6:35 PM 38.1 °F 34.6 °F 34.5 °F 87% 29.62 in 7.0 mi West 4.6 mph - N/A Rain Light Rain
6:55 PM 37.6 °F 34.0 °F 34.2 °F 87% 29.62 in 5.0 mi WSW 4.6 mph - N/A Rain Light Rain
7:15 PM 37.4 °F 33.8 °F 34.5 °F 89% 29.63 in 7.0 mi WSW 4.6 mph - N/A Rain Rain
7:35 PM 37.4 °F 34.9 °F 34.7 °F 90% 29.63 in 7.0 mi WSW 3.5 mph - N/A Rain Rain
8:15 PM 38.1 °F 35.7 °F 35.6 °F 91% 29.63 in 7.0 mi West 3.5 mph - N/A Rain Rain
8:35 PM 38.3 °F - 35.8 °F 91% 29.63 in 7.0 mi Calm Calm - N/A Rain Rain
8:55 PM 38.3 °F 34.8 °F 35.8 °F 91% 29.63 in 10.0 mi WSW 4.6 mph - N/A   Light Drizzle
9:15 PM 38.3 °F 35.9 °F 35.8 °F 91% 29.64 in 7.0 mi WSW 3.5 mph - N/A Rain Light Rain
9:35 PM 38.3 °F 35.9 °F 35.8 °F 91% 29.64 in 7.0 mi WSW 3.5 mph - N/A Rain Light Rain
9:55 PM 38.3 °F 33.9 °F 35.8 °F 91% 29.64 in 7.0 mi WSW 5.8 mph - N/A Rain Rain
10:15 PM 38.3 °F 34.8 °F 36.0 °F 91% 29.65 in 5.0 mi West 4.6 mph - N/A Rain Light Rain
10:35 PM 38.5 °F 34.1 °F 36.1 °F 91% 29.65 in 7.0 mi West 5.8 mph - N/A Rain Light Rain
11:15 PM 38.7 °F - 36.3 °F 91% 29.65 in 10.0 mi Calm Calm - N/A Rain Light Rain
11:35 PM 38.7 °F 34.3 °F 36.1 °F 91% 29.65 in 10.0 mi West 5.8 mph - N/A   Light Drizzle